NV6B Weather Reports


Display with metric or nautical units.
time (UTC)temp
F
wind
direction
speed
MPH
gust
MPH
rain 1hr
in
rain 24hr
in
rain mn
in
humidity
%
barometer
mb
20260904031534 51 301 10.0 20.0 0.00 0.08 0.08 65 1011.5
20260904030534 52 296 13.0 18.0 0.00 0.08 0.08 67 1011.6
20260904025534 52 293 10.0 18.0 0.00 0.08 0.08 67 1010.7
20260904024534 53 276 7.0 26.0 0.00 0.08 0.08 65 1010.3
20260904023534 55 324 10.0 16.0 0.00 0.08 0.08 67 1010.0
20260904022534 57 299 11.0 17.0 0.00 0.08 0.08 67 1009.4
20260904021554 58 240 6.0 14.0 0.00 0.08 0.08 67 1009.3
20260904020534 59 314 10.0 10.0 0.00 0.08 0.08 67 1008.8
20260904015534 60 310 4.0 12.0 0.00 0.08 0.08 66 1008.7
20260904014533 60 272 7.0 14.0 0.00 0.08 0.08 63 1008.4
20260904013533 62 315 10.0 10.0 0.00 0.08 0.08 62 1008.3
20260904012533 62 295 9.0 11.0 0.00 0.08 0.08 63 1008.2
20260904011533 63 319 7.0 10.0 0.00 0.08 0.08 64 1007.9
20260904010533 64 284 3.0 8.0 0.00 0.08 0.08 63 1007.9
20260904005533 64 298 5.0 6.0 0.00 0.08 0.08 63 1008.0
20260904004533 64 275 3.0 9.0 0.00 0.08 0.08 62 1007.9
20260904003533 65 281 3.0 9.0 0.00 0.08 0.08 61 1007.9
20260904002533 66 277 3.0 9.0 0.00 0.08 0.08 60 1008.3
20260904001532 66 304 3.0 8.0 0.00 0.08 0.08 59 1008.2
20260904000533 66 304 1.0 8.0 0.00 0.08 0.08 58 1008.1
20260903211551 70 287 1.0 3.0 0.00 0.08 0.08 47 1009.9
20260903210531 70 251 3.0 3.0 0.00 0.08 0.08 46 1010.1
20260903205531 70 310 3.0 5.0 0.00 0.08 0.08 47 1010.1
20260903204531 69 310 3.0 7.0 0.00 0.08 0.08 47 1010.2
20260903203530 70 310 2.0 4.0 0.00 0.08 0.08 46 1010.5
20260903202530 70 309 3.0 4.0 0.00 0.08 0.08 46 1010.6
20260903201531 70 308 2.0 4.0 0.00 0.08 0.08 45 1010.9
20260903200530 70 304 2.0 3.0 0.00 0.08 0.08 50 1011.1
20260903195530 68 304 2.0 5.0 0.00 0.08 0.08 49 1011.2
20260903194530 69 271 3.0 5.0 0.00 0.08 0.08 48 1011.3
20260903193530 69 258 3.0 5.0 0.00 0.08 0.08 51 1011.4
20260903192530 68 350 2.0 4.0 0.00 0.08 0.08 52 1011.6
20260903191530 67 221 1.0 3.0 0.00 0.08 0.08 52 1012.0
20260903190530 66 221 3.0 3.0 0.00 0.08 0.08 56 1012.1
20260903185530 66 193 1.0 4.0 0.00 0.08 0.08 59 1012.4
20260903184530 66 218 3.0 5.0 0.00 0.08 0.08 58 1012.6
20260903183550 66 183 4.0 5.0 0.00 0.08 0.08 55 1012.7
20260903182529 65 114 3.0 4.0 0.00 0.08 0.08 56 1012.8
20260903181549 65 110 3.0 4.0 0.00 0.08 0.08 57 1012.9
20260903180529 65 156 3.0 8.0 0.00 0.08 0.08 56 1013.0
20260903175529 65 96 3.0 9.0 0.00 0.08 0.08 56 1013.0
20260903174529 64 173 1.0 10.0 0.00 0.08 0.08 60 1013.1
20260903173529 63 147 6.0 7.0 0.00 0.08 0.08 60 1013.2
20260903172529 62 129 5.0 5.0 0.00 0.08 0.08 63 1013.3
20260903171529 61 127 3.0 5.0 0.00 0.08 0.08 67 1013.3
20260903170529 61 93 0.0 3.0 0.00 0.08 0.08 68 1013.5
20260903165529 61 93 2.0 4.0 0.00 0.08 0.08 68 1013.6
20260903140527 54 166 3.0 4.0 0.00 0.08 0.08 81 1013.2
20260903135527 54 170 2.0 3.0 0.00 0.08 0.08 82 1013.2
20260903105525 54 93 3.0 8.0 0.01 0.08 0.08 80 1012.4
20260903104525 54 83 3.0 8.0 0.02 0.08 0.08 80 1012.5
20260903103525 55 93 6.0 8.0 0.01 0.07 0.07 80 1012.6
20260903102525 55 89 3.0 6.0 0.01 0.07 0.07 80 1012.7
20260903101525 55 84 3.0 6.0 0.02 0.07 0.07 80 1012.7
20260903100525 55 78 3.0 6.0 0.02 0.07 0.07 80 1012.6
20260903095525 55 72 3.0 6.0 0.02 0.07 0.07 80 1012.6
20260903065523 58 255 2.0 8.0 0.00 0.00 0.00 63 1013.5
20260903064523 59 256 3.0 6.0 0.00 0.00 0.00 59 1013.6
20260903063523 59 351 0.0 3.0 0.00 0.00 0.00 54 1013.4
20260903062523 59 351 0.0 4.0 0.00 0.00 0.00 53 1013.2
20260903061522 59 351 1.0 6.0 0.00 0.00 0.00 53 1013.2
20260903060523 59 351 1.0 6.0 0.00 0.00 0.00 53 1013.2
20260903055522 59 349 3.0 4.0 0.00 0.00 0.00 53 1013.1
20260903054522 59 349 3.0 6.0 0.00 0.00 0.00 52 1013.2
20260903053522 60 347 3.0 6.0 0.00 0.00 0.00 52 1013.2
20260903052522 60 356 3.0 8.0 0.00 0.00 0.00 51 1013.2
20260903051542 60 360 3.0 7.0 0.00 0.00 0.00 50 1013.1
20260903050522 60 354 4.0 6.0 0.00 0.00 0.00 50 1013.1
20260903045542 61 322 2.0 8.0 0.00 0.00 0.00 49 1013.0
20260903044522 61 309 3.0 10.0 0.00 0.00 0.00 48 1013.0
20260903043522 62 4 5.0 8.0 0.00 0.00 0.00 48 1012.9
20260903042522 62 344 3.0 9.0 0.00 0.00 0.00 47 1012.9
20260903041522 62 4 5.0 10.0 0.00 0.00 0.00 45 1012.5
20260903040521 63 14 3.0 7.0 0.00 0.00 0.00 45 1012.3
20260903035521 63 343 6.0 9.0 0.00 0.00 0.00 44 1012.1
20260903034522 64 295 3.0 8.0 0.00 0.00 0.00 43 1012.0